Temp
12 12 12 12 11 11 11 11 11 10 10 10 10 10 10 9 9 9 8 8 7 6 6 6 6 5 5 5 5 5 5 5 5 5 5 5 5 5 5 4 4 4 4 4 4 4 4 5 5 6 6 6
12 12 11 11 11 10 10 10 10 10 10 10 10 10 9 9 9 8 8 7 6 6 6 6 6 5 5 4 4 4 4 4 4 4 4 4 4 3 3 3 3 4 4 3 3 3 3 4 4 5 5 5
11 11 11 10 10 10 10 10 10 10 10 10 9 9 9 8 8 8 7 7 6 6 6 5 5 5 4 4 4 4 3 3 3 3 3 2 2 2 2 2 3 3 3 2 2 2 2 3 4 4 4 4
11 11 10 10 10 10 10 10 10 10 9 9 9 8 8 8 7 7 6 6 5 5 5 5 5 5 4 4 4 4 3 3 2 2 2 1 1 1 1 2 2 2 2 1 1 1 1 2 2 2 2 2
11 11 11 10 10 10 10 9 9 9 9 8 8 7 7 7 6 6 6 5 5 5 5 4 4 4 4 4 3 3 2 2 2 1 1 0 0 1 1 1 1 1 1 1 -0 -0 0 1 1 1 0 0
10 10 10 10 9 9 9 9 9 8 8 7 7 7 6 6 5 5 5 4 4 4 4 4 3 3 3 2 2 2 2 1 1 1 0 0 0 1 1 1 0 0 0 -0 -1 -1 -0 0 -1 -1 -1 -1
10 10 10 9 9 8 8 8 8 7 7 6 6 6 5 5 4 4 4 3 3 3 3 3 2 2 2 2 2 2 2 2 1 1 1 0 0 1 0 0 -0 -1 -0 -1 -1 -1 -1 -2 -3 -3 -3 -2
9 9 9 8 8 7 7 7 7 6 6 5 5 5 4 4 4 3 3 3 3 3 3 2 2 2 2 2 2 2 2 1 1 1 1 0 -0 -0 -1 -1 -2 -2 -2 -2 -2 -2 -3 -4 -4 -4 -4 -4
9 8 8 7 7 7 7 6 6 5 5 5 5 4 4 3 3 3 3 3 3 3 2 2 2 2 1 1 0 -0 -1 -1 -1 -1 -1 -2 -2 -2 -3 -4 -5 -5 -5 -4 -4 -4 -5 -5 -6 -5 -5 -5
8 8 7 7 6 6 6 5 5 5 5 4 4 4 3 3 3 2 2 2 2 2 1 1 0 -0 -1 -2 -3 -3 -3 -3 -3 -3 -4 -4 -4 -4 -5 -6 -6 -7 -7 -7 -6 -7 -7 -7 -7 -6 -6 -6
8 7 7 6 6 6 5 5 5 4 4 3 3 3 2 2 2 2 2 1 1 0 -0 -1 -2 -3 -3 -5 -6 -6 -4 -4 -5 -5 -5 -6 -5 -5 -5 -5 -6 -7 -8 -8 -8 -8 -8 -8 -7 -7 -7 -6
7 6 6 5 5 5 4 4 4 3 2 2 2 2 1 1 1 0 0 -1 -1 -2 -2 -2 -3 -4 -5 -7 -8 -7 -6 -5 -6 -5 -5 -6 -6 -5 -6 -6 -6 -7 -8 -9 -9 -9 -9 -8 -8 -8 -7 -7
6 5 5 5 4 4 3 3 3 2 2 1 1 1 0 -0 -1 -1 -1 -2 -3 -3 -3 -3 -4 -6 -7 -9 -9 -8 -8 -7 -7 -7 -7 -8 -8 -8 -8 -8 -8 -8 -8 -9 -9 -9 -9 -9 -9 -8 -8 -9
5 5 4 3 3 2 2 2 2 2 1 1 0 -0 -1 -1 -2 -2 -2 -3 -4 -3 -3 -4 -6 -8 -9 -10 -11 -10 -9 -8 -8 -8 -8 -9 -10 -9 -9 -9 -9 -9 -9 -9 -9 -9 -9 -9 -9 -9 -9 -10
4 4 3 2 2 2 2 1 1 1 -0 -1 -1 -2 -2 -2 -3 -3 -3 -4 -4 -4 -5 -7 -8 -9 -9 -10 -11 -11 -10 -9 -9 -9 -9 -10 -11 -10 -10 -10 -9 -9 -10 -10 -9 -10 -10 -9 -9 -10 -10 -10
3 2 1 1 1 1 1 1 1 -0 -1 -2 -2 -3 -3 -3 -4 -4 -5 -5 -5 -6 -7 -8 -8 -8 -9 -10 -11 -11 -10 -9 -9 -9 -9 -10 -11 -11 -10 -9 -8 -8 -9 -10 -10 -10 -10 -10 -10 -10 -10 -11
2 1 1 1 1 0 -0 -0 -0 -1 -3 -4 -4 -4 -4 -5 -5 -5 -6 -6 -6 -7 -8 -8 -8 -8 -9 -10 -11 -11 -10 -9 -8 -8 -8 -9 -10 -11 -11 -9 -9 -8 -9 -10 -11 -11 -11 -10 -10 -11 -11 -11
1 1 1 1 0 -0 -1 -1 -2 -3 -5 -6 -6 -5 -5 -5 -6 -6 -7 -7 -7 -8 -8 -9 -9 -9 -9 -10 -10 -11 -10 -9 -9 -9 -10 -10 -11 -12 -12 -11 -10 -10 -9 -10 -11 -11 -11 -11 -11 -11 -11 -11
0 0 0 -0 -1 -1 -2 -2 -3 -5 -6 -7 -7 -6 -6 -6 -7 -8 -8 -8 -9 -9 -9 -9 -9 -10 -10 -10 -10 -11 -10 -10 -11 -11 -12 -12 -13 -13 -14 -13 -12 -12 -11 -10 -11 -11 -11 -12 -12 -11 -11 -11
-0 -0 -1 -1 -2 -2 -2 -3 -4 -5 -7 -7 -7 -7 -8 -8 -8 -10 -10 -9 -10 -10 -10 -10 -10 -10 -11 -10 -11 -11 -11 -12 -12 -13 -13 -14 -14 -14 -14 -14 -13 -12 -13 -12 -11 -11 -11 -12 -12 -12 -12 -12
-1 -1 -1 -2 -2 -3 -3 -4 -4 -6 -6 -7 -9 -10 -10 -9 -9 -10 -11 -10 -11 -11 -11 -11 -11 -11 -11 -11 -12 -12 -13 -13 -14 -14 -15 -15 -15 -15 -15 -15 -14 -13 -14 -13 -12 -11 -11 -12 -12 -12 -12 -12
-1 -2 -2 -2 -3 -3 -4 -5 -6 -6 -6 -9 -12 -12 -12 -11 -10 -11 -11 -11 -11 -11 -11 -11 -11 -11 -11 -12 -13 -14 -15 -15 -14 -15 -16 -16 -16 -15 -15 -16 -16 -15 -15 -14 -12 -12 -11 -12 -12 -12 -12 -12
-2 -2 -3 -4 -4 -4 -5 -6 -6 -6 -7 -10 -13 -14 -13 -12 -12 -12 -12 -12 -12 -12 -12 -12 -12 -12 -13 -15 -15 -15 -15 -15 -15 -14 -15 -16 -16 -16 -16 -16 -16 -16 -16 -15 -13 -13 -12 -12 -12 -13 -12 -13
-3 -3 -4 -5 -5 -7 -8 -7 -7 -8 -8 -10 -13 -14 -14 -14 -13 -13 -13 -12 -12 -12 -12 -13 -13 -14 -15 -15 -15 -15 -15 -16 -15 -14 -13 -15 -16 -16 -16 -16 -16 -15 -15 -16 -15 -14 -12 -12 -13 -13 -12 -13
-3 -3 -4 -6 -8 -9 -10 -9 -9 -10 -11 -11 -12 -13 -14 -15 -15 -14 -14 -13 -13 -13 -13 -13 -14 -15 -15 -15 -15 -16 -16 -16 -15 -14 -13 -14 -16 -17 -17 -17 -17 -16 -15 -16 -17 -15 -14 -13 -13 -13 -12 -13
-3 -4 -5 -7 -9 -10 -10 -10 -11 -11 -12 -12 -12 -13 -13 -14 -15 -16 -15 -15 -14 -13 -13 -14 -14 -15 -14 -15 -16 -16 -16 -15 -15 -15 -15 -15 -16 -17 -18 -18 -18 -18 -17 -18 -18 -17 -16 -15 -14 -13 -12 -13
-4 -6 -7 -8 -9 -9 -10 -12 -12 -13 -13 -13 -13 -13 -14 -15 -15 -16 -16 -16 -14 -14 -14 -14 -14 -14 -15 -15 -15 -15 -15 -15 -15 -15 -16 -17 -18 -17 -17 -18 -18 -19 -19 -20 -19 -18 -17 -17 -15 -13 -13 -15
-5 -7 -7 -8 -9 -10 -11 -13 -13 -14 -14 -14 -14 -15 -15 -15 -15 -15 -15 -16 -16 -15 -15 -14 -14 -14 -15 -15 -15 -15 -15 -15 -16 -17 -16 -17 -18 -18 -18 -18 -19 -19 -19 -20 -20 -20 -19 -18 -17 -15 -16 -18
-7 -7 -7 -8 -10 -11 -12 -13 -13 -14 -15 -15 -16 -15 -15 -15 -15 -14 -14 -15 -17 -17 -16 -15 -15 -15 -15 -15 -15 -15 -16 -16 -17 -18 -17 -17 -18 -19 -19 -19 -18 -19 -20 -20 -20 -21 -21 -19 -17 -18 -20 -20
-7 -7 -9 -10 -11 -12 -13 -14 -14 -15 -15 -16 -16 -16 -16 -15 -14 -14 -14 -15 -16 -17 -16 -16 -15 -15 -15 -15 -16 -16 -17 -18 -18 -18 -18 -18 -18 -19 -20 -19 -19 -20 -20 -20 -21 -20 -21 -20 -19 -21 -22 -21
-7 -8 -10 -11 -12 -13 -14 -14 -15 -15 -15 -16 -16 -15 -15 -15 -14 -14 -15 -15 -14 -15 -16 -16 -16 -15 -15 -16 -16 -17 -17 -18 -18 -18 -18 -18 -18 -19 -20 -21 -21 -22 -21 -20 -21 -21 -21 -21 -21 -22 -22 -23
Height
843 843 843 843 842 841 840 840 840 840 840 839 839 838 838 837 837 836 836 835 835 834 833 832 831 831 830 830 829 828 827 826 825 824 823 822 821 819 818 816 814 813 811 810 808 806 804 803 801 800 798 796
844 843 843 842 841 840 840 840 840 840 840 839 839 839 838 838 837 837 836 836 835 834 833 832 831 831 830 830 829 828 827 826 825 824 823 821 820 818 817 815 813 812 810 809 807 806 804 802 801 799 797 796
843 843 842 841 841 841 841 841 840 840 840 839 839 839 839 838 837 837 837 836 835 834 833 833 832 831 830 829 828 827 826 825 824 823 822 821 819 817 815 814 812 811 809 808 807 805 803 802 800 798 797 795
843 842 841 841 841 841 841 841 841 840 840 840 840 839 839 838 838 837 837 836 835 835 834 833 832 831 830 829 828 827 826 825 823 822 821 820 818 816 814 813 811 810 809 807 806 805 803 801 799 798 796 795
842 842 842 842 842 842 841 841 841 841 841 840 840 840 839 838 838 837 837 836 836 835 834 833 832 831 830 829 828 827 826 824 823 822 820 819 817 815 814 812 810 809 808 807 806 805 803 801 799 798 797 796
843 843 842 842 842 842 842 842 841 841 841 841 841 840 840 839 838 838 837 836 836 835 834 833 832 831 830 829 828 826 825 824 823 821 820 818 816 815 813 811 809 807 807 806 805 803 802 800 799 798 797 796
843 843 843 843 843 843 843 842 842 842 842 841 841 841 840 839 839 838 838 837 836 835 834 833 832 831 830 829 827 826 825 824 822 821 820 818 816 815 813 810 809 808 806 805 804 802 801 799 799 798 797 796
843 844 843 844 844 844 844 843 843 843 843 842 842 842 841 840 840 839 838 838 837 835 834 832 832 830 829 828 827 826 825 823 822 821 820 818 817 814 813 811 810 809 807 806 804 802 801 800 799 799 798 797
844 844 844 844 845 845 844 844 844 844 844 843 843 842 842 841 841 840 839 838 836 835 834 833 832 831 830 829 828 826 825 824 823 821 820 818 817 815 814 813 811 810 808 807 805 804 802 802 801 800 799 798
845 845 845 845 846 846 845 845 845 845 844 844 844 843 843 842 841 840 839 838 837 836 835 834 833 832 831 830 828 827 826 825 823 821 820 819 818 816 815 814 813 811 810 808 806 805 804 803 802 801 800 799
845 846 846 847 847 846 846 847 846 845 845 845 844 843 843 842 841 841 840 839 838 837 837 835 834 833 832 831 830 829 827 826 824 823 821 820 819 818 816 814 813 812 811 809 808 806 806 805 804 803 802 801
846 847 848 848 848 847 848 848 847 847 847 846 845 844 844 843 843 842 841 840 839 839 838 837 836 835 833 832 832 831 829 827 826 824 823 822 821 819 817 815 814 813 812 810 809 808 807 806 806 805 804 802
848 849 849 849 849 849 849 848 848 848 847 847 846 846 845 845 844 843 842 841 841 841 839 838 838 836 835 834 834 832 830 829 827 826 824 823 822 820 818 817 815 814 813 812 810 809 809 808 807 807 805 804
850 850 850 850 850 850 850 849 849 849 848 848 848 847 847 846 845 844 844 843 843 842 840 840 839 838 837 836 835 834 832 831 829 828 826 825 823 822 820 818 817 815 814 813 811 811 810 810 809 809 807 805
851 851 851 851 851 851 850 851 851 850 850 850 849 849 849 848 847 846 845 845 844 843 842 841 840 839 838 837 837 836 835 833 832 830 828 827 826 825 823 821 819 817 815 814 813 812 812 811 811 810 808 806
852 852 852 852 852 852 852 852 852 851 852 851 851 851 850 849 848 848 847 847 846 845 844 843 842 841 840 839 839 838 837 835 833 832 831 829 828 827 825 823 821 819 817 816 815 814 814 813 813 812 810 808
853 854 854 853 853 853 854 853 853 853 853 853 853 853 852 851 850 850 849 849 848 847 846 845 844 843 842 841 841 840 839 837 835 834 832 831 829 828 826 824 822 820 818 817 816 816 815 815 814 814 811 809
854 855 855 854 855 855 855 854 854 854 855 855 855 855 854 853 853 852 852 851 850 849 848 847 846 845 844 844 843 842 841 839 838 836 833 832 830 828 828 826 824 821 819 818 817 817 816 816 816 815 812 811
856 856 856 856 856 856 856 856 856 856 856 857 857 857 856 855 855 854 854 853 852 851 850 849 848 847 847 846 845 844 843 842 840 838 835 833 831 830 829 827 824 822 820 819 818 818 818 817 817 816 813 812
857 857 857 857 857 857 857 857 857 857 858 858 859 859 859 858 858 857 857 856 854 853 852 851 850 850 850 848 847 846 844 842 840 839 837 835 833 832 830 828 825 824 822 821 820 819 819 819 818 817 814 812
858 858 858 858 858 858 858 858 858 859 859 860 861 861 861 861 860 859 859 858 856 855 854 853 852 852 851 850 848 846 845 843 841 840 838 836 835 834 832 830 827 825 823 822 821 820 819 819 819 818 816 814
858 859 859 859 859 860 860 860 861 861 861 862 863 864 864 864 863 862 861 859 858 857 856 855 854 854 852 850 848 846 845 844 842 840 839 838 837 836 835 833 829 826 825 823 821 820 820 820 820 819 818 815
859 859 860 860 861 861 861 862 863 863 863 864 865 866 867 866 865 864 862 861 860 859 858 857 855 854 852 850 849 847 845 844 843 841 840 838 838 837 836 835 831 828 825 824 822 821 821 821 821 820 819 816
860 860 860 861 861 862 863 865 865 866 866 866 866 867 869 868 867 865 864 863 861 860 859 858 856 855 853 851 850 848 847 845 844 843 841 840 839 838 836 835 831 827 825 823 822 822 821 821 821 820 819 817
861 861 861 861 862 864 866 867 867 868 868 868 868 868 868 869 868 867 866 864 863 861 860 858 857 855 854 853 852 851 850 849 847 845 844 843 842 840 837 835 832 828 824 820 820 820 821 821 821 820 818 817
860 861 862 862 863 865 867 869 869 870 870 870 870 870 869 869 869 869 868 866 864 862 861 859 858 856 856 855 854 853 852 851 849 847 846 844 843 842 840 838 836 831 826 825 825 823 821 820 819 819 818 817
861 862 863 862 864 866 868 870 871 872 872 872 872 872 871 871 870 869 868 867 865 863 862 860 859 858 858 857 856 855 854 852 850 849 848 845 844 844 842 841 839 836 833 833 831 826 825 824 821 817 815 816
862 863 863 864 865 867 869 872 873 873 874 874 874 873 873 872 871 870 869 868 867 865 864 862 862 861 861 860 858 857 855 853 852 851 850 848 847 846 843 842 841 841 839 838 835 832 833 833 828 824 821 819
864 864 864 865 867 869 871 873 874 874 875 875 875 875 874 873 872 871 870 869 868 867 866 865 864 864 863 862 860 859 857 856 855 854 852 850 849 848 847 846 845 845 844 843 843 842 842 840 838 840 837 829
864 864 865 867 868 870 871 873 875 876 876 876 876 876 875 875 874 873 872 870 869 869 868 867 867 866 865 864 862 861 860 859 858 856 854 853 852 851 851 850 848 847 847 848 848 847 849 849 849 849 846 839
865 865 866 868 869 871 872 873 875 876 877 877 877 877 876 876 875 874 873 872 871 870 869 869 869 868 867 866 864 863 862 860 859 858 856 856 854 853 852 852 851 851 851 851 851 851 851 852 853 852 849 848
Wind_Speed
17 18 18 17 15 14 12 11 11 12 13 14 14 14 14 15 15 16 16 17 19 20 20 20 22 24 25 25 25 25 25 26 26 26 26 26 26 26 26 26 26 26 26 27 27 27 27 26 26 25 24 24
18 17 15 12 11 10 10 10 11 11 12 12 13 13 14 14 14 14 15 16 18 19 19 20 21 22 25 26 26 26 27 26 27 27 27 27 27 27 27 27 27 27 26 27 27 28 27 26 26 25 24 25
15 12 10 9 9 10 11 11 11 11 11 13 13 14 14 13 13 14 15 16 17 19 20 21 22 23 24 25 26 27 27 27 27 28 28 28 27 27 28 28 27 27 26 27 27 27 26 26 25 25 25 26
11 9 8 9 10 11 11 11 11 12 12 13 14 14 15 14 14 15 17 18 19 21 22 23 24 24 25 26 27 27 27 27 28 28 28 28 28 28 28 28 27 27 26 26 27 27 26 26 25 26 27 27
9 9 8 10 11 12 12 12 12 12 13 14 15 16 16 16 17 19 20 21 22 22 24 25 25 26 27 28 28 29 29 29 29 29 29 29 29 29 29 29 29 29 28 27 27 26 26 26 26 27 28 28
10 10 10 12 13 13 14 14 14 14 16 16 17 18 18 20 21 22 23 23 24 25 25 26 27 28 29 30 30 30 30 30 30 29 30 30 30 30 30 31 31 31 30 29 28 27 27 27 27 28 28 28
13 13 13 15 15 16 16 16 16 17 18 18 19 20 21 23 23 24 24 25 26 27 28 29 30 30 30 30 30 30 29 29 29 29 29 29 29 29 30 31 31 31 30 30 29 29 29 30 30 29 28 28
15 16 16 17 17 17 16 17 18 19 19 21 22 22 23 24 25 25 26 26 27 29 30 30 30 30 29 29 29 29 29 29 29 29 29 29 30 30 30 31 31 31 30 30 29 29 30 31 32 31 31 30
17 18 17 17 17 17 18 19 19 20 21 22 23 23 25 25 26 26 27 28 29 29 29 29 29 30 30 30 31 32 32 32 31 31 31 32 32 32 32 32 32 32 32 32 30 30 31 32 32 32 33 31
18 18 18 19 18 18 20 20 20 21 22 23 24 24 25 26 27 27 28 29 29 29 29 30 31 31 31 32 34 35 35 35 34 33 33 34 35 33 33 32 32 34 34 33 32 32 32 32 32 33 34 32
18 18 18 20 19 19 21 21 21 23 24 25 25 26 27 27 27 28 28 29 30 30 30 31 32 32 32 33 36 37 36 36 35 34 33 34 35 34 34 33 33 35 35 34 32 32 32 32 32 33 34 33
19 20 20 20 20 21 22 21 23 25 26 26 27 27 28 28 28 28 29 31 31 31 31 32 33 33 32 32 34 37 37 36 36 34 34 34 34 35 34 34 34 34 35 34 32 31 31 31 30 32 34 32
22 21 21 21 21 22 22 23 25 26 26 27 27 27 28 28 29 30 30 32 32 31 31 32 32 33 32 31 32 36 38 37 36 35 34 33 34 35 35 35 35 34 35 33 32 31 31 31 29 32 34 31
22 21 22 23 23 23 24 25 25 26 26 27 27 28 28 29 30 31 31 32 32 31 32 33 32 32 32 31 30 34 37 36 35 35 34 32 32 35 35 35 35 34 33 32 31 31 30 30 28 32 35 29
23 23 24 25 24 24 25 25 25 26 27 28 28 29 29 29 30 31 31 31 31 32 33 34 33 32 32 32 30 32 35 35 35 34 33 32 30 32 35 35 35 34 32 32 31 29 29 28 25 32 35 29
23 24 25 25 25 25 25 24 25 27 29 29 29 29 30 30 31 31 31 31 31 33 34 34 34 33 33 33 31 31 34 34 34 34 33 32 29 31 36 37 36 34 31 30 29 28 27 26 23 31 35 29
24 24 24 25 25 25 25 25 26 28 30 31 30 30 31 31 31 31 31 31 32 33 34 34 34 34 34 33 33 33 34 34 34 33 32 33 31 31 37 39 37 33 32 30 28 27 25 25 21 29 34 29
24 24 24 24 25 25 25 25 27 29 30 32 32 31 31 31 31 31 31 31 32 33 33 34 34 35 35 34 34 34 34 33 31 32 33 33 32 31 33 38 38 34 33 30 27 25 25 24 20 27 33 28
24 24 24 24 25 25 25 26 28 30 31 32 32 31 31 30 31 32 32 31 32 33 33 33 34 35 34 33 34 34 33 32 31 32 33 31 31 29 29 37 40 36 35 31 27 23 23 24 20 27 32 28
24 24 24 25 26 26 26 27 28 29 30 31 32 31 31 30 31 32 31 31 32 32 32 33 34 34 32 32 33 34 34 34 33 31 32 31 30 28 29 40 43 37 35 31 27 21 20 22 19 27 32 28
23 24 25 26 26 26 26 27 28 28 28 29 31 31 31 29 30 31 30 31 32 32 33 33 33 31 31 33 34 36 37 37 34 32 31 30 30 28 28 40 43 37 36 31 26 20 17 20 18 24 31 27
23 24 25 26 26 27 27 28 28 27 26 28 28 29 29 29 29 30 31 31 32 32 33 32 32 31 32 34 35 37 38 37 36 33 31 29 30 28 26 36 41 36 35 30 25 21 15 16 14 18 28 26
22 23 25 26 27 28 29 29 28 27 26 27 25 23 24 27 30 30 30 31 31 31 32 31 32 33 33 34 35 37 38 38 38 36 33 31 31 31 27 33 39 35 33 28 22 21 14 12 10 12 25 25
20 22 24 26 27 29 30 29 28 28 27 26 24 21 19 22 28 31 30 30 30 31 31 32 33 34 34 34 35 37 37 37 38 37 36 34 31 32 32 35 41 38 35 29 18 17 16 14 7 6 23 27
19 21 23 25 28 30 30 29 29 29 28 26 24 22 19 17 21 26 29 30 29 31 32 33 34 34 34 34 35 35 35 35 36 36 35 33 30 29 32 35 41 40 38 34 20 14 14 16 9 2 20 33
20 20 21 24 27 28 29 28 29 29 28 27 25 23 22 19 17 17 23 28 29 30 32 34 34 34 34 33 33 32 34 34 34 36 34 33 31 29 30 30 36 40 35 30 20 14 8 9 11 5 14 38
20 21 22 24 25 26 26 26 26 27 26 26 25 24 22 20 19 17 18 24 28 30 31 33 33 33 33 32 32 32 33 34 34 36 34 33 30 29 32 29 32 38 33 26 19 13 3 3 10 4 8 37
22 22 23 24 24 25 26 24 23 24 23 22 23 23 22 20 20 20 20 21 24 28 30 31 31 31 31 30 31 31 32 33 33 34 34 33 30 28 32 32 30 32 33 31 21 10 4 3 7 1 9 30
22 22 23 24 24 24 24 22 21 21 20 19 20 21 21 21 21 21 22 21 20 23 27 28 28 28 28 28 29 29 30 31 31 31 31 32 30 26 27 29 29 28 28 31 26 15 6 3 4 1 13 20
19 20 21 22 22 21 21 20 18 17 17 18 19 20 20 20 21 22 22 22 20 21 23 25 26 25 26 26 27 27 28 29 29 30 30 29 29 27 24 25 28 28 25 25 26 24 16 8 3 3 12 10
18 20 21 22 22 21 21 20 18 17 18 19 20 20 20 20 21 22 22 22 22 22 22 22 23 23 23 24 25 25 26 28 28 28 28 28 27 26 24 24 25 23 23 22 22 23 20 13 8 5 8 6
Wind_Direction
61 60 58 56 53 51 49 49 47 44 42 39 38 33 31 31 32 35 35 35 35 32 30 28 27 27 25 23 21 20 18 17 15 14 12 10 8 6 3 2 1 360 360 360 360 359 353 348 347 345 343 342
61 59 55 52 49 48 45 43 41 40 40 40 39 37 35 36 37 39 39 38 36 31 27 25 23 23 24 24 22 21 20 19 16 15 12 10 8 6 4 2 359 357 359 360 0 1 356 352 351 350 350 351
63 58 49 47 44 41 40 39 43 44 46 46 45 45 44 43 43 43 41 38 34 29 25 23 22 21 22 21 19 18 17 16 15 14 13 11 10 8 5 1 358 357 359 0 1 1 358 353 352 353 355 357
64 57 46 47 45 44 46 49 54 53 53 53 52 51 50 47 44 42 40 36 32 28 25 23 22 20 19 16 15 15 13 13 13 13 13 12 11 8 5 3 2 3 4 5 5 4 360 355 356 359 0 360
64 58 53 56 57 58 61 63 63 61 60 58 56 54 50 45 42 39 36 34 30 27 26 23 21 19 18 17 16 17 16 15 14 14 15 14 12 9 8 7 7 8 10 11 10 6 3 1 3 5 5 3
73 69 67 70 70 71 71 69 67 64 62 58 55 51 46 43 40 38 35 33 30 27 26 24 22 21 22 21 19 18 18 17 16 15 16 14 12 11 10 10 11 11 11 12 11 9 9 10 12 11 9 5
86 83 81 79 78 76 73 70 67 63 60 56 52 48 45 43 40 37 35 32 30 27 26 25 25 23 22 22 19 16 14 15 15 14 14 14 12 11 12 13 14 14 13 12 11 12 13 16 17 14 13 11
93 89 86 82 79 75 72 68 65 60 57 54 50 47 44 41 38 35 33 31 29 27 25 23 21 19 17 16 16 14 13 15 16 15 16 17 16 16 18 18 18 18 17 16 15 15 16 18 18 18 18 17
95 90 87 82 77 72 68 63 60 57 54 51 47 44 42 39 37 34 32 29 27 25 23 20 19 19 19 20 22 22 22 23 22 22 23 23 24 24 23 22 22 23 21 20 21 21 21 21 22 21 20 18
95 89 85 80 74 69 65 60 58 55 51 49 46 43 40 38 35 33 30 28 27 26 26 26 27 27 29 30 30 29 29 29 29 29 29 27 27 27 25 23 24 25 22 22 23 24 25 24 25 23 20 19
94 88 84 79 73 68 64 59 57 53 51 48 45 42 39 37 34 33 31 31 32 32 33 34 35 34 35 36 33 31 32 32 31 31 31 28 28 28 27 26 27 26 22 23 25 26 27 27 28 23 18 19
93 88 84 78 72 68 64 60 57 55 52 48 45 43 41 39 38 37 37 37 38 38 39 40 39 37 38 38 33 32 33 33 33 33 34 30 28 29 27 26 27 25 21 21 25 27 28 28 30 21 17 19
91 87 82 76 72 69 65 60 58 55 52 49 46 45 43 42 42 42 42 43 42 41 42 42 41 39 39 39 33 31 33 34 34 34 34 31 28 27 26 25 24 23 20 21 25 29 28 29 31 20 17 21
90 85 80 75 72 69 64 60 58 55 52 50 49 47 47 46 45 45 45 45 44 42 43 43 42 40 40 41 34 29 31 33 34 34 34 32 28 25 25 23 21 21 20 21 27 31 30 31 31 19 19 24
87 83 79 76 72 68 64 61 59 57 55 53 52 51 50 50 49 49 48 47 46 45 46 45 44 42 41 42 37 30 31 34 34 35 36 34 31 26 24 23 22 21 19 20 27 32 33 35 32 18 21 27
86 82 79 76 70 67 65 62 61 60 58 56 55 54 52 52 52 51 50 49 49 49 49 48 47 46 44 43 38 33 34 35 34 35 36 36 35 29 27 26 25 25 22 20 26 32 33 38 33 16 21 29
84 81 78 75 70 69 67 64 63 62 62 59 57 56 55 55 54 54 54 52 53 53 52 50 49 48 47 45 40 38 37 37 34 34 35 35 36 31 27 27 27 28 27 23 25 32 33 37 34 15 20 29
83 81 78 75 73 70 67 66 65 66 65 61 60 58 57 57 56 56 56 55 55 55 54 53 52 49 48 46 44 41 40 41 39 36 37 36 35 32 25 22 24 26 27 26 26 32 33 35 34 15 17 29
83 81 78 76 74 71 69 68 68 68 67 64 62 60 58 59 60 59 57 57 57 56 56 54 53 51 48 48 47 44 43 45 45 43 41 38 34 31 21 17 21 24 25 27 27 31 34 34 33 16 18 28
84 80 78 77 74 73 71 69 70 70 70 67 64 61 60 61 63 63 60 59 59 57 56 55 54 52 49 49 48 47 46 45 45 45 44 41 34 28 20 16 18 21 21 23 26 31 35 36 35 19 20 28
85 81 78 77 75 73 72 70 71 72 72 71 66 63 61 62 64 65 63 60 59 58 56 55 54 52 50 49 48 47 46 44 43 42 40 40 36 31 22 16 16 17 18 20 25 32 37 40 41 22 20 27
87 84 79 78 76 74 73 72 72 72 73 74 70 63 59 61 64 64 63 61 59 58 56 55 54 52 50 48 46 44 43 42 41 41 40 37 36 35 24 17 16 15 15 18 25 32 39 43 42 23 19 25
89 86 82 80 78 76 74 73 73 71 73 77 75 67 58 58 62 62 61 60 59 58 56 55 53 51 49 47 44 43 41 40 39 40 41 38 35 35 30 21 18 16 13 14 25 33 39 46 40 22 18 22
92 89 86 82 78 76 75 74 74 73 74 77 79 76 65 55 56 59 59 58 57 57 56 54 53 52 49 47 45 43 42 40 39 39 41 41 36 32 31 26 22 20 15 14 22 27 34 41 33 16 18 20
94 91 89 86 82 80 78 78 77 76 75 75 78 79 78 66 55 54 54 56 56 55 55 53 52 50 49 48 46 45 44 42 42 40 41 43 40 34 31 27 24 22 18 17 15 5 14 27 19 266 10 15
96 92 92 91 90 87 84 82 79 77 76 76 76 74 75 75 69 58 49 51 54 53 53 52 52 49 47 48 46 46 44 43 43 40 41 41 39 38 36 33 26 25 25 17 1 342 336 4 5 222 353 7
98 97 97 95 95 93 88 85 81 79 77 76 76 73 72 73 74 73 57 50 50 51 53 50 50 49 47 48 46 45 43 42 42 40 42 42 39 36 36 40 32 31 34 19 355 345 337 341 353 204 340 358
101 102 101 99 98 97 93 90 86 83 79 74 75 73 73 71 68 69 64 59 51 49 52 50 49 49 48 47 45 45 43 42 42 40 41 42 42 38 32 37 36 35 37 31 23 4 329 320 356 98 332 341
106 104 102 101 100 99 95 91 85 82 79 75 75 73 72 70 65 63 61 63 59 51 51 50 50 49 48 47 45 45 45 44 45 43 43 42 45 45 36 35 37 38 39 39 44 43 22 356 16 20 324 325
117 111 107 105 103 101 95 89 82 81 84 82 81 78 76 72 66 64 62 63 64 58 54 51 50 49 47 47 46 47 48 47 46 44 44 43 44 48 45 40 40 38 38 42 46 50 57 60 62 311 327 334
123 117 114 111 107 104 101 98 95 95 96 92 89 85 81 76 69 66 64 62 62 60 58 55 52 50 48 48 49 49 49 48 47 45 45 44 45 48 47 45 44 39 34 38 41 43 52 59 63 30 1 18